1306627225124,17.7902
1306627285124,17.7933
1306627345124,17.7638
1306627405124,17.7572
1306627465124,17.7378
1306627525124,17.7844
1306627585124,17.8399
1306627645124,17.8107
1306627705124,17.8336
1306627765124,17.8709
1306627825124,17.8231
1306627885124,17.7848
1306627945124,17.8376
1306628005124,17.7540
1306628065124,17.8569
1306628125124,17.7932
1306628185124,17.8025
1306628245124,17.8154
1306628305124,17.8800
1306628365124,17.9027
1306628425124,17.8306
1306628485124,17.8448
1306628545124,17.8048
1306628605124,17.7843
1306628665124,17.8273
1306628725124,17.7625
1306628785124,17.7662
1306628845124,17.7901
1306628905124,17.7461
1306628965124,17.7380
1306629025124,17.7038
1306629085124,17.7405
1306629145124,17.7313
1306629205124,17.7146
1306629265124,17.8265
1306629325124,17.7741
1306629385124,17.8658
1306629445124,17.8046
1306629505124,17.8118
1306629565124,17.8088
1306629625124,17.8009
1306629685124,17.7978
1306629745124,17.7990
1306629805124,17.7966
1306629865124,17.7858
1306629925124,17.7766
1306629985124,17.7724
1306630045124,17.7828
1306630105124,17.7691
1306630165124,17.7444
1306630225124,17.7504
1306630285124,17.7954
1306630345124,17.8070
1306630405124,17.7715
1306630465124,17.7655
1306630525124,17.7213
1306630585124,17.7813
1306630645124,17.7859
1306630705124,17.7476
1306630765124,17.8030
1306630825134,17.7726
1306630885134,17.7556
1306630945134,17.7911
1306631005134,17.7787
1306631065134,17.8404
1306631125134,17.8521
1306631185134,17.7703
1306631245134,17.8446
1306631305134,17.8411
1306631365134,17.8278
1306631425134,17.8634
1306631485134,17.8442
1306631545134,17.8442
1306631605134,17.9839
1306631665134,17.8624
1306631725134,17.8898
1306631785134,17.8502
1306631845134,17.8763
1306631905134,17.7671
1306631965134,17.8098
1306632025134,17.8341
1306632085134,17.8646
1306632145134,17.9052
1306632205134,17.8378
1306632265134,17.8841
1306632325134,17.8912
1306632385134,17.8764
1306632445134,17.8711
1306632505134,17.8801
1306632565134,17.9270
1306632625134,17.9047
1306632685134,17.9092
1306632745134,17.8932
1306632805134,17.8898
1306632865134,17.9663
1306632925134,17.9328
1306632985134,18.0090
1306633045134,17.9971
1306633105134,18.0031
1306633165134,18.1222
1306633225134,18.1076
1306633285134,18.1024
1306633345134,18.1130
1306633405134,18.1304
1306633465134,18.1252
1306633525134,18.0994
1306633585134,18.1102
1306633645134,18.0330
1306633705134,18.0486
1306633765134,17.9770
1306633825134,18.0198
1306633885134,17.9720
1306633945134,17.9749
1306634005134,17.9306
1306634065134,17.9672
1306634125134,17.9733
1306634185134,17.9084
1306634245134,17.9733
1306634305134,17.9887
1306634365134,18.0084
1306634425145,18.0100
1306634485145,18.0812
1306634545145,18.0066
1306634605145,17.9822
1306634665145,18.0097
1306634725145,18.0750
1306634785145,18.0698
1306634845145,18.0232
1306634905145,17.9453
1306634965145,17.9599
1306635025145,17.9407
1306635085145,17.8966
1306635145145,17.9223
1306635205145,17.9340
1306635265145,17.9016
1306635325145,17.9467
1306635385145,17.9227
1306635445145,17.9362
1306635505145,17.8986
1306635565145,17.9243
1306635625145,17.9066
1306635685145,17.8569
1306635745145,17.9096
1306635805145,17.9494
1306635865145,17.8999
1306635925145,17.8423
1306635985145,17.8816
1306636045145,17.9273
1306636105145,17.9248
1306636165145,17.8985
1306636225145,17.9350
1306636285145,17.8499
1306636345145,17.8741
1306636405145,17.8375
1306636465145,17.8394
1306636525145,17.8656
1306636585145,17.8751
1306636645145,17.8463
1306636705145,17.8824
1306636765145,17.8537
1306636825145,17.8754
1306636885145,17.8672
1306636945145,17.8987
1306637005145,17.8738
1306637065145,17.8693
1306637125145,17.8884
1306637185145,17.8467
1306637245145,17.8426
1306637305145,17.8801
1306637365145,17.8737
1306637425145,17.8701
1306637485145,17.8501
1306637545145,17.8636
1306637605145,17.8678
1306637665145,17.8535
1306637725145,17.8466
1306637785145,17.8691
1306637845145,17.8812
1306637905145,17.9067
1306637965145,17.8977
1306638025155,17.9022
1306638085155,17.8668
1306638145155,17.8793
1306638205155,17.8508
1306638265155,17.8027
1306638325155,17.8765
1306638385155,17.9104
1306638445155,17.8813
1306638505155,17.8740
1306638565155,17.9024
1306638625155,17.9227
1306638685155,17.8803
1306638745155,17.9000
1306638805155,17.8827
1306638865155,17.8459
1306638925155,17.8583
1306638985155,17.8323
1306639045155,17.8510
1306639105155,17.8857
1306639165155,17.8017
1306639225155,17.9297
1306639285155,17.9351
1306639345155,17.8812
1306639405155,17.8441
1306639465155,17.8683
1306639525155,17.8859
1306639585155,17.8775
1306639645155,17.8585
1306639705155,17.8400
1306639765155,17.8676
1306639825155,17.8577
1306639885155,17.8313
1306639945155,17.9315
1306640005155,17.9000
1306640065155,17.8326
1306640125155,17.8973
1306640185155,17.9229
1306640245155,17.8890
1306640305155,17.9586
1306640365155,17.9014
1306640425155,17.9342
1306640485155,17.9051
1306640545155,17.9014
1306640605155,17.8622
1306640665155,17.8897
1306640725155,17.8710
1306640785155,17.8726
1306640845155,17.9033
1306640905155,17.9065
1306640965155,17.8571
1306641025155,17.8830
1306641085155,17.9082
1306641145155,17.9645
1306641205155,17.9098
1306641265155,17.9193
1306641325155,17.9047
1306641385155,17.9082
1306641445155,17.8925
1306641505155,17.9090
1306641565155,17.8649
1306641625165,17.8531
1306641685165,17.9007
1306641745165,17.9193
1306641805165,17.9106
1306641865165,17.8995
1306641925165,17.8804
1306641985165,17.9402
1306642045165,17.8272
1306642105165,17.8809
1306642165165,17.8827
1306642225165,17.8832
1306642285165,17.8382
1306642345165,17.8623
1306642405165,17.8843
1306642465165,17.8937
1306642525165,17.8933
1306642585165,17.8607
1306642645165,17.8594
1306642705165,17.9053
1306642765165,17.9009
1306642825165,17.8670
1306642885165,17.8852
1306642945165,17.8580
1306643005165,17.8929
1306643065165,17.8566
1306643125165,17.8933
1306643185165,17.8732
1306643245165,17.9007
1306643305165,17.8914
1306643365165,17.8913
1306643425165,17.9228
1306643485165,17.9929
1306643545165,17.9225
1306643605165,17.8935
1306643665165,17.8001
1306643725165,17.8821
1306643785165,17.8785
1306643845165,17.8806
1306643905165,17.8917
1306643965165,17.8973
1306644025165,17.8910
1306644085165,17.8906
1306644145165,17.9386
1306644205165,17.9156
1306644265165,17.8519
1306644325165,17.8815
1306644385165,17.9523
1306644445165,17.9297
1306644505165,17.9532
1306644565165,17.9425
1306644625165,17.9868
1306644685165,17.9475
1306644745165,17.9130
1306644805165,17.9761
1306644865165,17.9498
1306644925165,17.9329
1306644985165,17.9162
1306645045165,17.9537
1306645105165,17.9897
1306645165165,17.9762
1306645225174,17.9218
1306645285174,17.9935
1306645345174,17.9973
1306645405174,17.9794
1306645465174,17.9783
1306645525174,17.9747
1306645585174,17.9021
1306645645174,17.9298
1306645705174,17.8872
1306645765174,17.9450
1306645825174,17.9322
1306645885174,17.9379
1306645945174,17.9590
1306646005174,17.9447
1306646065174,17.9404
1306646125174,17.9405
1306646185174,17.9789
1306646245174,17.9432
1306646305174,17.9938
1306646365174,18.0046
1306646425174,18.0239
1306646485174,18.0072
1306646545174,17.9751
1306646605174,17.9887
1306646665174,18.0379
1306646725174,18.0002
1306646785174,17.9983
1306646845174,17.9963
1306646905174,18.0011
1306646965174,17.9561
1306647025174,17.9659
1306647085174,17.9482
1306647145174,17.9447
1306647205174,17.9560
1306647265174,17.9523
1306647325174,17.9150
1306647385174,17.8895
1306647445174,17.9301
1306647505174,17.9265
1306647565174,17.9216
1306647625174,17.9586
1306647685174,17.8808
1306647745174,17.9270
1306647805174,17.9155
1306647865174,17.8873
1306647925174,17.9279
1306647985174,17.9200
1306648045174,17.9727
1306648105174,17.9499
1306648165174,17.8803
1306648225174,17.9453
1306648285174,17.9318
1306648345174,17.9456
1306648405174,17.9345
1306648465174,17.9345
1306648525174,17.9477
1306648585174,17.9277
1306648645174,17.9192
1306648705174,17.9186
1306648765174,18.0106
1306648825184,17.9641
1306648885184,17.9419
1306648945184,17.8934
1306649005184,17.9192
1306649065184,17.9258
1306649125184,17.8830
1306649185184,17.8700
1306649245184,17.9485
1306649305184,17.9248
1306649365184,17.9882
1306649425184,17.8779
1306649485184,17.9112
1306649545184,17.9161
1306649605184,17.9346
1306649665184,17.9389
1306649725184,17.9203
1306649785184,17.9562
1306649845184,17.9474
1306649905184,17.9877
1306649965184,17.9656
1306650025184,17.9211
1306650085184,17.8826
1306650145184,17.9281
1306650205184,17.9429
1306650265184,17.8908
1306650325184,17.8720
1306650385184,17.9034
1306650445184,17.8812
1306650505184,17.8892
1306650565184,17.8755
1306650625184,17.8788
1306650685184,17.8730
1306650745184,17.8847
1306650805184,17.8493
1306650865184,17.8933
1306650925184,17.8930
1306650985184,17.9477
1306651045184,17.9116
1306651105184,17.8939
1306651165184,17.9225
1306651225184,17.9067
1306651285184,17.9000
1306651345184,17.9113
1306651405184,17.8952
1306651465184,17.9214
1306651525184,17.9384
1306651585184,17.8494
1306651645184,17.8749
1306651705184,17.9280
1306651765184,17.9081
1306651825184,17.9435
1306651885184,17.8749
1306651945184,17.9113
1306652005184,17.8744
1306652065184,17.8328
1306652125184,17.9020
1306652185184,17.9019
1306652245184,17.9300
1306652305184,17.9451
1306652365184,17.9189
1306652425193,17.8855
1306652485193,17.9135
1306652545193,17.8999
1306652605193,17.8883
1306652665193,17.8587
1306652725193,17.8814
1306652785193,17.8729
1306652845193,17.9092
1306652905193,17.8938
1306652965193,17.9139
1306653025193,17.9196
1306653085193,17.9286
1306653145193,17.9787
1306653205193,17.9475
1306653265193,17.8788
1306653325193,17.9190
1306653385193,17.9263
1306653445193,17.9135
1306653505193,17.9271
1306653565193,17.9015
1306653625193,17.9165
1306653685193,17.9156
1306653745193,17.9292
1306653805193,17.8923
1306653865193,17.9266
1306653925193,17.8954
1306653985193,17.9234
1306654045193,17.9659
1306654105193,18.0466
1306654165193,18.0237
1306654225193,18.0590
1306654285193,18.1065
1306654345193,18.0834
1306654405193,18.0320
1306654465193,18.0635
1306654525193,18.0626
1306654585193,18.0538
1306654645193,17.9945
1306654705193,18.0544
1306654765193,18.0016
1306654825193,17.9997
1306654885193,18.0050
1306654945193,18.0080
1306655005193,17.9952
1306655065193,17.9505
1306655125193,17.8892
1306655185193,17.9581
1306655245193,17.9303
1306655305193,17.8770
1306655365193,17.9297
1306655425193,17.8814
1306655485193,17.8879
1306655545193,17.9033
1306655605193,17.8749
1306655665193,17.8543
1306655725193,17.8611
1306655785193,17.8447
1306655845193,17.8937
1306655905193,17.8884
1306655965193,17.8709
1306656025203,17.8725
1306656085203,17.9155
1306656145203,17.9204
1306656205203,17.8848
1306656265203,17.9083
1306656325203,17.9056
1306656385203,17.8644
1306656445203,17.9086
1306656505203,17.8994
1306656565203,17.9054
1306656625203,17.9419
1306656685203,17.8821
1306656745203,17.8618
1306656805203,17.9487
1306656865203,17.8865
1306656925203,17.8990
1306656985203,17.8826
1306657045203,17.9879
1306657105203,18.0035
1306657165203,17.9525
1306657225203,17.9721
1306657285203,17.9978
1306657345203,17.9993
1306657405203,17.9806
1306657465203,17.9648
1306657525203,17.9777
1306657585203,17.9898
1306657645203,17.9464
1306657705203,17.9719
1306657765203,17.9737
1306657825203,18.0271
1306657885203,18.0183
1306657945203,18.0027
1306658005203,18.0158
1306658065203,17.9805
1306658125203,18.0560
1306658185203,18.0493
1306658245203,18.0282
1306658305203,18.0141
1306658365203,18.0068
1306658425203,18.0259
1306658485203,18.0311
1306658545203,17.9927
1306658605203,18.0003
1306658665203,17.9718
1306658725203,18.0281
1306658785203,17.9852
1306658845203,17.9804
1306658905203,17.9638
1306658965203,17.9710
1306659025203,17.9234
1306659085203,17.9685
1306659145203,17.9740
1306659205203,17.9641
1306659265203,17.9963
1306659325203,17.9534
1306659385203,17.9329
1306659445203,17.9349
1306659505203,17.9207
1306659565203,17.9952
1306659625212,18.0113
1306659685212,17.9099
1306659745212,17.9619
1306659805212,17.9923
1306659865212,17.9405
1306659925212,17.9801
1306659985212,17.9515
1306660045212,17.8953
1306660105212,17.8925
1306660165212,17.9154
1306660225212,17.8855
1306660285212,17.9179
1306660345212,17.9313
1306660405212,17.9036
1306660465212,17.9264
1306660525212,17.9633
1306660585212,17.9430
1306660645212,17.9050
1306660705212,18.0043
1306660765212,18.0508
1306660825212,18.0349
1306660885212,18.0660
1306660945212,18.1590
1306661005212,18.1676
1306661065212,18.0810
1306661125212,18.1011
1306661185212,18.0301
1306661245212,18.0054
1306661305212,18.0261
1306661365212,17.9999
1306661425212,17.9586
1306661485212,17.9594
1306661545212,17.9876
1306661605212,17.9859
1306661665212,17.9798
1306661725212,17.9549
1306661785212,17.9654
1306661845212,17.9476
1306661905212,17.9585
1306661965212,17.9454
1306662025212,17.9771
1306662085212,17.9981
1306662145212,17.9925
1306662205212,18.0087
1306662265212,17.9617
1306662325212,18.0670
1306662385212,18.3338
1306662445212,18.3626
1306662505212,18.1664
1306662565212,18.0551
1306662625212,18.0580
1306662685212,18.0993
1306662745212,18.1038
1306662805212,18.1226
1306662865212,18.0255
1306662925212,18.0138
1306662985212,17.9459
1306663045212,17.9838
1306663105212,17.9946
1306663165212,17.9352
1306663225221,17.9387
1306663285221,17.9293
1306663345221,17.9183
1306663405221,17.9410
1306663465221,17.9947
1306663525221,17.9969
1306663585221,18.0167
1306663645221,18.0373
1306663705221,18.0103
1306663765221,18.0526
1306663825221,18.0896
1306663885221,18.1642
1306663945221,18.4283
1306664005221,18.5137
1306664065221,18.4900
1306664125221,18.4176
1306664185221,18.5066
1306664245221,18.5551
1306664305221,18.6309
1306664365221,18.5349
1306664425221,18.4748
1306664485221,18.4566
1306664545221,18.4331
1306664605221,18.3918
1306664665221,18.3616
1306664725221,18.2943
1306664785221,18.3840
1306664845221,18.3552
1306664905221,18.5144
1306664965221,18.4667
1306665025221,18.4014
1306665085221,18.3999
1306665145221,18.4402
1306665205221,18.3932
1306665265221,18.3444
1306665325221,18.3683
1306665385221,18.3734
1306665445221,18.3770
1306665505221,18.3537
1306665565221,18.3717
1306665625221,18.3360
1306665685221,18.4075
1306665745221,18.4010
1306665805221,18.4380
1306665865221,18.4347
1306665925221,18.4567
1306665985221,18.5089
1306666045221,18.4920
1306666105221,18.4719
1306666165221,18.4969
1306666225221,18.5676
1306666285221,18.5062
1306666345221,18.4754
1306666405221,18.4822
1306666465221,18.4733
1306666525221,18.5077
1306666585221,18.4937
1306666645221,18.5198
1306666705221,18.5647
1306666765221,18.6141
1306666825230,18.5823
1306666885230,18.6122
1306666945230,18.5381
1306667005230,18.5497
1306667065230,18.6490
1306667125230,18.6192
1306667185230,18.6093
1306667245230,18.6086
1306667305230,18.6099
1306667365230,18.6297
1306667425230,18.5854
1306667485230,18.5521
1306667545230,18.6043
1306667605230,18.6209
1306667665230,18.5349
1306667725230,18.6124
1306667785230,18.5033
1306667845230,18.5278
1306667905230,18.4866
1306667965230,18.5288
1306668025230,18.5333
1306668085230,18.5031
1306668145230,18.5100
1306668205230,18.5205
1306668265230,18.5352
1306668325230,18.4552
1306668385230,18.4939
1306668445230,18.4811
1306668505230,18.4613
1306668565230,18.4377
1306668625230,18.4543
1306668685230,18.5342
1306668745230,18.4458
1306668805230,18.4756
1306668865230,18.4393
1306668925230,18.4354
1306668985230,18.4406
1306669045230,18.8159
1306669105230,18.9232
1306669165230,18.7963
1306669225230,18.6263
1306669285230,18.6087
1306669345230,18.6395
1306669405230,18.6030
1306669465230,18.5565
1306669525230,18.5339
1306669585230,18.4217
1306669645230,18.4204
1306669705230,18.4125
1306669765230,18.4138
1306669825230,18.4017
1306669885230,18.4398
1306669945230,18.3654
1306670005230,18.3371
1306670065230,18.3362
1306670125230,18.3555
1306670185230,18.3740
1306670245230,18.3149
1306670305230,18.3061
1306670365230,18.3501
1306670425240,18.2977
1306670485240,18.3143
1306670545240,18.3356
1306670605240,18.3485
1306670665240,18.3215
1306670725240,18.2919
1306670785240,18.2672
1306670845240,18.3119
1306670905240,18.2558
1306670965240,18.2623
1306671025240,18.2308
1306671085240,18.2454
1306671145240,18.2606
1306671205240,18.2843
1306671265240,18.2943
1306671325240,18.2966
1306671385240,18.3114
1306671445240,18.3027
1306671505240,18.2374
1306671565240,18.2665
1306671625240,18.2683
1306671685240,18.2456
1306671745240,18.2736
1306671805240,18.2527
1306671865240,18.2090
1306671925240,18.2292
1306671985240,18.1958
1306672045240,18.1780
1306672105240,18.2076
1306672165240,18.1387
1306672225240,18.1595
1306672285240,18.2008
1306672345240,18.1662
1306672405240,18.2198
1306672465240,18.1744
1306672525240,18.1631
1306672585240,18.1558
1306672645240,18.2174
1306672705240,18.1585
1306672765240,18.1934
1306672825240,18.1506
1306672885240,18.1263
1306672945240,18.0808
1306673005240,18.1254
1306673065240,18.1481
1306673125240,18.1340
1306673185240,18.1607
1306673245240,18.1803
1306673305240,18.1221
1306673365240,18.1212
1306673425240,18.1386
1306673485240,18.1635
1306673545240,18.1543
1306673605240,18.2020
1306673665240,18.1961
1306673725240,18.1971
1306673785240,18.1591
1306673845240,18.2101
1306673905240,18.1688
1306673965240,18.1697
1306674025249,18.1951
1306674085249,18.1674
1306674145249,18.1596
1306674205249,18.1598
1306674265249,18.2016
1306674325249,18.1459
1306674385249,18.1862
1306674445249,18.1381
1306674505249,18.1720
1306674565249,18.2017
1306674625249,18.1557
1306674685249,18.1864
1306674745249,18.1794
1306674805249,18.1709
1306674865249,18.2224
1306674925249,18.1691
1306674985249,18.1560
1306675045249,18.1517
1306675105249,18.1597
1306675165249,18.1507
1306675225249,18.1728
1306675285249,18.1482
1306675345249,18.1754
1306675405249,18.2286
1306676545249,18.1440
1306676605249,18.2215
1306676665249,18.2409
1306676725249,18.1975
1306676785249,18.1813
1306676845249,18.1719
1306676905249,18.1923
1306676965249,18.2031
1306677025249,18.1944
1306677085249,18.1624
1306677145249,18.1746
1306677205249,18.1486
1306677265249,18.1598
1306677325249,18.1672
1306677385249,18.1547
1306677445249,18.2035
1306677505249,18.1275
1306677565249,18.1323
1306677625258,18.1313
1306677685258,18.1603
1306677745258,18.1700
1306677805258,18.1294
1306677865258,18.1326
1306677925258,18.1674
1306677985258,18.1589
1306678045258,18.1648
1306678105258,18.1766
1306678165258,18.1941
1306678225258,18.2195
1306678285258,18.2326
1306678345258,18.2197
1306678405258,18.1580
1306678465258,18.2354
1306678525258,18.1837
1306678585258,18.2358
1306678645258,18.2451
1306678705258,18.2189
1306678765258,18.1690
1306678825258,18.1594
1306678885258,18.1372
1306678945258,18.1807
1306679005258,18.1786
1306679065258,18.1980
1306679125258,18.2206
1306679185258,18.1648
1306679245258,18.1459
1306679305258,18.1783
1306679365258,18.2024
1306679425258,18.1629
1306679485258,18.1446
1306679545258,18.1529
1306679605258,18.1494
1306679665258,18.1921
1306679725258,18.2120
1306679785258,18.1654
1306679845258,18.1846
1306679905258,18.2024
1306679965258,18.1521
1306680025258,18.1402
1306680085258,18.1678
1306680145258,18.1908
1306680205258,18.2002
1306680265258,18.1457
1306680325258,18.1762
1306680385258,18.1893
1306680445258,18.1699
1306680505258,18.1658
1306680565258,18.1984
1306680625258,18.1556
1306680685258,18.1461
1306680745258,18.2695
1306680805258,18.2121
1306680865258,18.2484
1306680925258,18.2840
1306680985258,18.3537
1306681045258,18.3243
1306681105258,18.2901
1306681165258,18.4012
1306681225268,18.3452
1306681285268,18.2301
1306681345268,18.2305
1306681405268,18.2216
1306681465268,18.2883
1306681525268,18.3493
1306681585268,18.2371
1306681645268,18.2524
1306681705268,18.2622
1306681765268,18.1784
1306681825268,18.1914
1306681885268,18.1998
1306681945268,18.1762
1306682005268,18.1802
1306682065268,18.2140
1306682125268,18.1488
1306682185268,18.1984
1306682245268,18.1739
1306682305268,18.1696
1306682365268,18.1651
1306682425268,18.1902
1306682485268,18.1729
1306682545268,18.1957
1306682605268,18.1677
1306682665268,18.1945
1306682725268,18.2552
1306682785268,18.2401
1306682845268,18.2104
1306682905268,18.1710
1306682965268,18.2316
1306683025268,18.1761
1306683085268,18.1590
1306683145268,18.1388
1306683205268,18.1226
1306683265268,18.1917
1306683325268,18.1351
1306683385268,18.1290
1306683445268,18.1536
1306683505268,18.2294
1306683565268,18.2617
1306683625268,18.3269
1306683685268,18.4213
1306683745268,18.3099
1306683805268,18.2987
1306683865268,18.2901
1306683925268,18.3273
1306683985268,18.2735
1306684045268,18.2549
1306684105268,18.2412
1306684165268,18.2068
1306684225268,18.1716
1306684285268,18.2241
1306684345268,18.2245
1306684405268,18.2156
1306684465268,18.1475
1306684525268,18.2111
1306684585268,18.1532
1306684645268,18.2363
1306684705268,18.1969
1306684765268,18.2090
1306684825277,18.2209
1306684885277,18.2991
1306684945277,18.3059
1306685005277,18.2547
1306685065277,18.2475
1306685125277,18.1978
1306685185277,18.2146
1306685245277,18.2032
1306685305277,18.2023
1306685365277,18.1731
1306685425277,18.1835
1306685485277,18.2258
1306685545277,18.1435
1306685605277,18.1844
1306685665277,18.1948
1306685725277,18.2358
1306685785277,18.1607
1306685845277,18.2497
1306685905277,18.2660
1306685965277,18.1934
1306686025277,18.2306
1306686085277,18.2269
1306686145277,18.2548
1306686205277,18.2304
1306686265277,18.2803
1306686325277,18.2660
1306686385277,18.2404
1306686445277,18.2091
1306686505277,18.2353
1306686565277,18.2858
1306686625277,18.2110
1306686685277,18.2700
1306686745277,18.2294
1306686805277,18.2410
1306686865277,18.2979
1306686925277,18.2470
1306686985277,18.2859
1306687045277,18.2325
1306687105277,18.2976
1306687165277,18.3077
1306687225277,18.3129
1306687285277,18.2399
1306687345277,18.2202
1306687405277,18.1867
1306687465277,18.2100
1306687525277,18.2342
1306687585277,18.2329
1306687645277,18.2234
1306687705277,18.1895
1306687765277,18.2047
1306687825277,18.2232
1306687885277,18.2079
1306687945277,18.2372
1306688005277,18.2752
1306688065277,18.2314
1306688125277,18.2096
1306688185277,18.2965
1306688245277,18.2850
1306688305277,18.2563
1306688365277,18.2512
1306688425287,18.2365
1306688485287,18.2687
1306688545287,18.2442
1306688605287,18.2386
1306688665287,18.2568
1306688725287,18.2577
1306688785287,18.2546
1306688845287,18.2465
1306688905287,18.2299
1306688965287,18.2616
1306689025287,18.2145
1306689085287,18.2409
1306689145287,18.2139
1306689205287,18.1214
1306689265287,18.1742
1306689325287,18.2167
1306689385287,18.1695
1306689445287,18.2347
1306689505287,18.2192
1306689565287,18.2052
1306689625287,18.1840
1306689685287,18.1774
1306689745287,18.1899
1306689805287,18.1769
1306689865287,18.1683
1306689925287,18.1670
1306689985287,18.2089
1306690045287,18.1493
1306690105287,18.1629
1306690165287,18.1256
1306690225287,18.1198
1306690285287,18.1292
1306690345287,18.1598
1306690405287,18.1167
1306690465287,18.1430
1306690525287,18.1459
1306690585287,18.1919
1306690645287,18.1928
1306690705287,18.2017
1306690765287,18.1392
1306690825287,18.1569
1306690885287,18.1109
1306690945287,18.1662
1306691005287,18.1777
1306691065287,18.1511
1306691125287,18.1510
1306691185287,18.1553
1306691245287,18.1486
1306691305287,18.1480
1306691365287,18.1628
1306691425287,18.1720
1306691485287,18.2056
1306691545287,18.1639
1306691605287,18.1535
1306691665287,18.1714
1306691725287,18.1736
1306691785287,18.0989
1306691845287,18.1526
1306691905287,18.2808
1306691965287,18.2043
1306692025297,18.2152
1306692085297,18.2223
1306692145297,18.1873
1306692205297,18.1976
1306692265297,18.2569
1306692325297,18.1868
1306692385297,18.2154
1306692445297,18.2207
1306692505297,18.2450
1306692565297,18.2177
1306692625297,18.1907
1306692685297,18.1634
1306692745297,18.2401
1306692805297,18.2366
1306692865297,18.2473
1306692925297,18.2307
1306692985297,18.1890
1306693045297,18.1957
1306693105297,18.2079
1306693165297,18.1790
1306693225297,18.2205
1306693285297,18.2043
1306693345297,18.2131
1306693405297,18.2749
1306693465297,18.2882
1306693525297,18.2833
1306693585297,18.1936
1306693645297,18.2381